[[{"header":{"parameterUnit":"m.s-1","parameterCategory":1,"la1":30.2991,"la2":30.254,"lo1":-89.0895,"lo2":-89.0444,"dy":0.0017,"dx":0.0017,"nx":28,"ny":28,"refTime":"2024-05-27T09:00:00:Z","depth":0,"parameterNumber":2,"parameterNumberName":"U-component_of_WINDS"},"data":[0,0,0,0,0,0,0,0,0,0,0,0,0,0,0,0,0,0,0,0,0,0,0,0,0,0,0,0,0,0,0,0,0,0,0,0,0,0,0,0,0,0,0,0,0,0,0,0,0,0,0,0,0,0,0,0,0,0,1.0498,1.0499,0,1.0648,1.0649,1.0651,1.0642,1.064,1.0637,1.0635,1.0792,1.0798,1.0805,0,0,0,0,0,0,0,0,0,0,0,0,0,1.0208,1.0213,1.0498,1.05,1.0501,1.0647,1.0649,1.0652,1.0642,1.064,1.0637,1.0634,1.079,1.0798,1.0805,0,0,0,0,0,0,0,0,0,0,0,0,0,1.0343,1.0215,1.0497,1.0514,1.0517,1.0647,1.065,1.0652,1.0643,1.0639,1.0636,1.0633,1.0788,1.0797,1.0806,1.093,0,0,1.0835,1.0839,0,0,0,0,0,0,0,0,1.0336,1.0354,1.051,1.0513,1.0517,1.0623,1.0605,1.0745,1.0644,1.0595,1.0635,1.0631,1.0739,1.0752,1.0787,1.0937,1.0944,1.0836,1.0841,1.0845,1.0848,0,0,0,0,0,0,0,1.0326,1.0347,1.0557,1.0512,1.0517,1.0516,1.0531,1.0631,1.0684,1.0599,1.0599,1.0617,1.074,1.0778,1.0791,1.0946,1.0835,1.0844,1.0849,1.0853,1.1208,1.1212,0,0,0,0,0,0,1.0312,1.034,1.0552,1.0562,1.0416,1.0524,1.0541,1.0592,1.0683,1.0693,1.0619,1.0616,1.0764,1.078,1.0797,1.095,1.0845,1.0854,1.0859,1.1204,1.1209,1.1213,0,0,0,0,0,0,1.0306,1.0331,1.0546,1.0451,1.0478,1.0532,1.0589,1.0597,1.0635,1.0698,1.0707,1.0649,1.0762,1.0783,1.0897,1.0955,1.0858,1.0867,1.12,1.1206,1.1211,1.1256,0,0,0,0,0,0,1.0298,1.0329,1.0376,1.0452,1.0483,1.0643,1.0593,1.0602,1.0651,1.0648,1.0728,1.0738,1.0761,1.0883,1.0907,1.0966,1.0874,1.1195,1.1202,1.1209,1.1249,1.1262,1.1273,0,0,0,0,0,1.0288,1.0383,1.0378,1.0404,1.0542,1.0647,1.0665,1.0688,1.0655,1.0704,1.0744,1.0736,1.0944,1.0895,1.0921,1.0984,1.1191,1.12,1.1209,1.1244,1.126,1.1273,0,0,0,0,0,0,1.0313,1.0393,1.0389,1.0511,1.0572,1.0645,1.0706,1.0704,1.0777,1.0771,1.0798,1.0816,1.0931,1.0969,1.0912,1.111,1.1064,1.1078,1.1082,1.1097,1.1109,1.1099,1.0882,0,0,0,0,0,1.0332,1.0409,1.0475,1.0577,1.0608,1.0652,1.0698,1.0711,1.0776,1.0802,1.0851,1.0915,1.0996,1.1048,1.1125,1.1254,1.1273,1.131,1.1322,1.1332,1.1345,1.1418,1.1437,1.1241,1.1241,1.1241,0,0,1.0374,1.0427,1.0474,1.0583,1.0632,1.0713,1.0674,1.076,1.0821,1.0816,1.0927,1.0964,1.1038,1.1161,1.1217,1.1196,1.1402,1.1343,1.135,1.1358,1.1429,1.1447,1.1464,1.1247,1.1246,1.1245,0,0,1.0492,1.0539,1.063,1.068,1.0754,1.0783,1.0804,1.0878,1.0903,1.1014,1.1013,1.1086,1.1223,1.1276,1.1321,1.146,1.1457,1.1485,1.1548,1.162,1.1635,1.1649,1.1702,1.172,1.1497,1.1497,1.1497,0,1.0535,1.0656,1.0677,1.0765,1.0814,1.0812,1.0905,1.0953,1.1049,1.1084,1.1058,1.1231,1.128,1.1417,1.1451,1.1486,1.1514,1.1477,1.1631,1.1645,1.1658,1.1709,1.1728,1.15,1.15,1.1499,1.1499,0,1.0707,1.079,1.0855,1.0948,1.1004,1.1094,1.1131,1.1185,1.1193,1.1225,1.134,1.1399,1.1489,1.1522,1.153,1.166,1.1645,1.1625,1.1579,1.168,1.1728,1.1747,1.1505,1.1503,1.1503,1.1502,0,0,1.0846,1.0949,1.0973,1.1016,1.1098,1.1164,1.1255,1.1343,1.139,1.1456,1.1535,1.1651,1.1634,1.1685,1.17,1.1762,1.1872,1.1734,1.1737,1.1761,1.2022,1.2039,1.2061,1.1868,1.1872,1.1875,1.2017,0,1.0974,1.1135,1.1157,1.13,1.138,1.1378,1.1458,1.1518,1.155,1.1624,1.1659,1.1743,1.1711,1.1743,1.1804,1.1846,1.1925,1.1835,1.1945,1.1948,1.1929,1.2086,1.2104,1.2234,1.2035,1.2039,1.2041,0,1.1146,1.1217,1.1368,1.1441,1.1475,1.1546,1.163,1.1698,1.1767,1.1787,1.1844,1.1851,1.1948,1.1896,1.203,1.1969,1.2014,1.2042,1.2047,1.2061,1.2003,1.2106,1.2276,1.2297,1.207,1.2068,1.2066,0,1.1236,1.137,1.1478,1.1514,1.1601,1.1652,1.1691,1.1756,1.1808,1.1881,1.1915,1.1998,1.2044,1.2109,1.2139,1.2098,1.2273,1.2223,1.2294,1.2294,1.2333,1.2331,1.2516,1.2358,1.2357,1.2357,1.2357,0,1.1379,1.1472,1.152,1.1587,1.1692,1.1717,1.182,1.1858,1.1916,1.1991,1.1994,1.2066,1.21,1.2176,1.22,1.231,1.233,1.235,1.2356,1.2352,1.235,1.2384,1.2377,1.2362,1.2361,1.236,1.2359,0,1.1499,1.1534,1.1652,1.1725,1.1746,1.182,1.1884,1.195,1.1981,1.2077,1.21,1.2151,1.2241,1.2277,1.2388,1.2404,1.2531,1.2528,1.2508,1.2511,1.2581,1.2575,1.2798,1.283,1.2647,1.2648,1.265,0,1.1589,1.1661,1.1742,1.1792,1.1833,1.1914,1.1967,1.1995,1.205,1.2134,1.2191,1.2281,1.2355,1.25,1.2547,1.2632,1.2634,1.2706,1.2647,1.2641,1.2639,1.2635,1.2644,1.2718,1.2719,1.2721,1.2722,0,1.1747,1.1761,1.1837,1.192,1.1983,1.205,1.2115,1.2156,1.2194,1.2256,1.2349,1.2406,1.2519,1.261,1.2698,1.2739,1.2739,1.274,1.2762,1.276,1.2746,1.2758,1.2541,1.2735,1.2734,1.2733,1.2732,1.2732,1.1857,1.1922,1.199,1.2075,1.2126,1.2187,1.2253,1.2293,1.2371,1.2465,1.2476,1.2576,1.2645,1.2763,1.2808,1.2888,1.2869,1.29,1.2908,1.2916,1.2923,1.2731,1.2904,1.2903,1.2903,1.2903,1.2902,0,1.2018,1.2061,1.2139,1.223,1.2298,1.2289,1.2361,1.2419,1.2507,1.257,1.2643,1.275,1.2838,1.2892,1.2981,1.3035,1.3037,1.3058,1.3056,1.3066,1.2932,1.2906,1.3055,1.3055,1.3055,1.3055,1.3055,1.3055,1.211,1.222,1.2242,1.2379,1.2422,1.2519,1.2562,1.2619,1.267,1.279,1.2863,1.2897,1.2958,1.3051,1.3132,1.3146,1.318,1.3203,1.3216,1.3091,1.3075,1.306,1.3036,1.3209,1.321,1.3343,1.3345,1.3346]},{"header":{"parameterUnit":"m.s-1","parameterCategory":1,"la1":30.2991,"la2":30.254,"lo1":-89.0895,"lo2":-89.0444,"dy":0.0017,"dx":0.0017,"nx":28,"ny":28,"refTime":"2024-05-27T09:00:00:Z","depth":0,"parameterNumber":3,"parameterNumberName":"V-component_of_WINDS"},"data":[0,0,0,0,0,0,0,0,0,0,0,0,0,0,0,0,0,0,0,0,0,0,0,0,0,0,0,0,0,0,0,0,0,0,0,0,0,0,0,0,0,0,0,0,0,0,0,0,0,0,0,0,0,0,0,0,0,0,5.2918,5.2919,0,5.3027,5.3029,5.303,5.2984,5.2982,5.2979,5.2977,5.3079,5.3084,5.3089,0,0,0,0,0,0,0,0,0,0,0,0,0,5.2659,5.2664,5.2918,5.2919,5.292,5.3027,5.3029,5.303,5.2985,5.2982,5.2979,5.2976,5.3078,5.3084,5.309,0,0,0,0,0,0,0,0,0,0,0,0,0,5.277,5.2666,5.2917,5.2911,5.2912,5.3027,5.3029,5.3031,5.2986,5.2982,5.2978,5.2974,5.3076,5.3083,5.3091,5.3216,0,0,5.3114,5.3118,0,0,0,0,0,0,0,0,5.2764,5.2779,5.2911,5.2912,5.2912,5.2989,5.2975,5.3092,5.2987,5.2957,5.2977,5.2972,5.3052,5.3061,5.309,5.3221,5.3225,5.3115,5.312,5.3123,5.3125,0,0,0,0,0,0,0,5.2756,5.2774,5.2961,5.2912,5.2914,5.2899,5.2911,5.2997,5.3024,5.2959,5.2956,5.2971,5.3051,5.3083,5.3092,5.3227,5.3115,5.3122,5.3126,5.3129,5.3465,5.3469,0,0,0,0,0,0,5.275,5.2768,5.2957,5.2964,5.2827,5.2907,5.292,5.2968,5.3023,5.3028,5.2974,5.2968,5.3071,5.3083,5.3095,5.3246,5.3123,5.313,5.3135,5.3461,5.3466,5.3471,0,0,0,0,0,0,5.2744,5.2767,5.2953,5.2866,5.2888,5.2916,5.297,5.2972,5.3003,5.3035,5.3038,5.3001,5.3069,5.3084,5.3187,5.3249,5.3134,5.3141,5.3456,5.3463,5.3468,5.3549,0,0,0,0,0,0,5.2737,5.2765,5.2816,5.2867,5.2893,5.3046,5.2974,5.2977,5.3018,5.3012,5.3061,5.3066,5.3067,5.3176,5.3195,5.3258,5.3147,5.345,5.3459,5.3466,5.3541,5.3557,5.3571,0,0,0,0,0,5.2728,5.2831,5.2818,5.2841,5.2957,5.305,5.3064,5.3066,5.3023,5.3072,5.3092,5.3064,5.3239,5.3187,5.3207,5.3274,5.3446,5.3456,5.3466,5.3534,5.3554,5.3571,0,0,0,0,0,0,5.2783,5.2838,5.2824,5.2948,5.2995,5.3042,5.3104,5.3087,5.3144,5.3136,5.3132,5.3144,5.325,5.3271,5.3212,5.3397,5.3336,5.335,5.338,5.34,5.3415,5.3407,5.3153,0,0,0,0,0,5.281,5.2884,5.2927,5.3032,5.3056,5.3077,5.3117,5.3115,5.3161,5.318,5.3207,5.3251,5.3316,5.3358,5.342,5.3543,5.3552,5.3598,5.3614,5.3626,5.3639,5.3705,5.3726,5.3503,5.3502,5.3502,0,0,5.2865,5.2905,5.2951,5.3044,5.308,5.3154,5.3093,5.3174,5.3228,5.3191,5.3291,5.3312,5.3361,5.3474,5.3526,5.3495,5.3702,5.3638,5.3648,5.3654,5.3717,5.3738,5.3757,5.3509,5.3508,5.3507,0,0,5.3005,5.3043,5.3135,5.3173,5.323,5.3243,5.3265,5.3315,5.3329,5.3429,5.3404,5.3465,5.3577,5.3613,5.3646,5.38,5.3776,5.3819,5.3899,5.3964,5.3982,5.3997,5.4052,5.4072,5.3831,5.3831,5.3832,0,5.3066,5.3181,5.3184,5.3268,5.3308,5.3282,5.3374,5.3409,5.3481,5.3509,5.3474,5.3615,5.3645,5.3767,5.3805,5.3832,5.3856,5.3814,5.398,5.3995,5.401,5.4062,5.4083,5.3836,5.3836,5.3835,5.3835,0,5.3253,5.3332,5.3399,5.3474,5.3522,5.3609,5.3623,5.367,5.3664,5.3679,5.3781,5.3817,5.3885,5.3913,5.3906,5.4034,5.4014,5.398,5.3918,5.4036,5.4085,5.4105,5.3844,5.3842,5.384,5.3839,0,0,5.3431,5.3508,5.3532,5.3566,5.3627,5.3686,5.3771,5.3841,5.3882,5.3932,5.4002,5.4097,5.4067,5.4104,5.41,5.4157,5.4277,5.4115,5.4116,5.4145,5.442,5.4446,5.447,5.4261,5.4264,5.4267,5.4416,0,5.3576,5.373,5.3735,5.3874,5.3947,5.3922,5.3995,5.4039,5.4055,5.4116,5.4132,5.4201,5.4154,5.4177,5.4232,5.4251,5.4332,5.4239,5.4324,5.4327,5.4314,5.4495,5.4524,5.4662,5.4435,5.4438,5.4441,0,5.3766,5.3827,5.3975,5.4026,5.4056,5.4123,5.4188,5.4247,5.4295,5.4302,5.4345,5.4333,5.4416,5.4351,5.4465,5.4402,5.4436,5.445,5.4456,5.4464,5.4392,5.451,5.4707,5.4728,5.4471,5.4469,5.4466,0,5.3883,5.4001,5.4105,5.4134,5.4196,5.4243,5.427,5.4314,5.4356,5.4411,5.4438,5.4501,5.4535,5.4583,5.4587,5.4539,5.4702,5.4637,5.4709,5.4709,5.4745,5.4743,5.4951,5.4766,5.4765,5.4765,5.4764,0,5.4045,5.4137,5.4158,5.4222,5.4323,5.4326,5.4424,5.4447,5.4487,5.4552,5.4532,5.4593,5.4594,5.4656,5.4659,5.4753,5.4768,5.4775,5.4775,5.4778,5.4777,5.4801,5.4792,5.477,5.4769,5.4768,5.4767,0,5.4193,5.4211,5.4323,5.4373,5.4388,5.446,5.4501,5.456,5.4575,5.4658,5.4677,5.4699,5.477,5.4779,5.4861,5.4862,5.4976,5.4965,5.4962,5.4961,5.5033,5.5026,5.5264,5.5296,5.5089,5.5091,5.5092,0,5.4296,5.4367,5.4426,5.447,5.4501,5.4572,5.4616,5.4621,5.4667,5.4726,5.4778,5.4848,5.4905,5.502,5.504,5.5103,5.5094,5.5173,5.5103,5.5104,5.5096,5.5092,5.5099,5.5187,5.5189,5.5191,5.5192,0,5.4478,5.4484,5.455,5.462,5.4674,5.4728,5.4778,5.4814,5.4825,5.4877,5.4952,5.4996,5.5081,5.5151,5.5213,5.5236,5.5216,5.5214,5.5234,5.5238,5.5234,5.5239,5.5,5.5209,5.5207,5.5206,5.5205,5.5204,5.4607,5.4669,5.4721,5.4795,5.4834,5.4882,5.4941,5.4964,5.5028,5.5101,5.5098,5.5181,5.5224,5.5306,5.5335,5.5397,5.537,5.5399,5.5407,5.5414,5.5422,5.5224,5.5407,5.5407,5.5407,5.5406,5.5406,0,5.4789,5.4821,5.489,5.4963,5.5021,5.5,5.5054,5.5103,5.5178,5.5222,5.5279,5.5365,5.5432,5.5458,5.5523,5.5568,5.556,5.5585,5.5582,5.5588,5.5442,5.5418,5.559,5.559,5.559,5.559,5.559,5.559,5.489,5.4995,5.5006,5.5128,5.5159,5.5243,5.5276,5.5319,5.5355,5.5453,5.551,5.5528,5.5565,5.5633,5.5692,5.5698,5.5723,5.5752,5.5754,5.5617,5.5598,5.5581,5.5559,5.5758,5.5758,5.5895,5.5897,5.5898]}]]